Weather History for KSHV - February, 2014

Change the Weather History Date:

Monday, February 24, 2014

  Actual Average Record
Temperature  
Mean Temperature 55 °F 53 °F  
Max Temperature 63 °F 64 °F 85 °F (1918)
Min Temperature 46 °F 42 °F 21 °F (1965)
Degree Days  
Heating Degree Days 10 13  
Month to date heating degree days 400 362  
Since 1 July heating degree days 2029 1834  
Cooling Degree Days 0 0  
Month to date cooling degree days 6 0  
Year to date cooling degree days 6 4  
Growing Degree Days 4 (Base 50)    
Moisture  
Dew Point 40 °F    
Average Humidity 59    
Maximum Humidity 71    
Minimum Humidity 46    
Precipitation  
Precipitation 0.00 in 0.17 in 1.82 in (1949)
Month to date precipitation 2.27 4.12  
Year to date precipitation 3.09 8.32  
Snow  
Snow 0.00 in - - ()
Month to date snowfall 1.0  
Since 1 July snowfall 1.0  
Snow Depth 0.00 in    
Sea Level Pressure  
Sea Level Pressure 30.11 in    
Wind  
Wind Speed 8 mph (ENE)    
Max Wind Speed 16 mph    
Max Gust Speed 22 mph    
Visibility 10 miles    
Events      
T = Trace of Precipitation, MM = Missing Value Source: NWS Daily Summary

Daily Weather History Graph

Daily Weather History Graph

Search for Another Location

Airport or City:

Trip Planner

Search our weather history database for the weather conditions in past years. The results will help you decide how hot, cold, wet, or windy it might be!

Date:

Astronomy

Feb. 24, 2014 Rise Set
Actual Time 6:48 AM CST 6:08 PM CST
Civil Twilight 6:23 AM CST 6:33 PM CST
Nautical Twilight 5:55 AM CST 7:02 PM CST
Astronomical Twilight 5:26 AM CST 7:30 PM CST
Moon 2:37 AM CST (2/24) 1:20 PM CST (2/24)
Length of Visible Light 12h 09m
Length of Day
11h 20m
Waning Crescent, 28% of the Moon is Illuminated
Feb 24
Waning Crescent
Mar 1
New
Mar 8
First Quarter
Mar 16
Full
Mar 23
Last Quarter

Hourly Weather History & Observations

Time (CST) Temp. Dew Point Humidity Pressure Visibility Wind Dir Wind Speed Gust Speed Precip Events Conditions
12:56 AM 54.0 °F 39.0 °F 57% 30.09 in 10.0 mi NE 10.4 mph - N/A   Overcast
1:56 AM 53.1 °F 39.0 °F 59% 30.10 in 10.0 mi NNE 11.5 mph - N/A   Overcast
2:21 AM 53.6 °F 37.4 °F 54% 30.10 in 10.0 mi NE 10.4 mph - N/A   Overcast
2:44 AM 51.8 °F 37.4 °F 58% 30.11 in 10.0 mi NE 10.4 mph - N/A   Overcast
2:56 AM 52.0 °F 37.9 °F 59% 30.10 in 10.0 mi NE 8.1 mph - N/A   Overcast
3:56 AM 51.1 °F 37.9 °F 61% 30.11 in 10.0 mi ENE 11.5 mph - N/A   Overcast
4:56 AM 48.9 °F 37.9 °F 66% 30.12 in 10.0 mi ENE 11.5 mph - N/A   Overcast
5:03 AM 48.2 °F 37.4 °F 66% 30.12 in 10.0 mi ENE 12.7 mph - N/A   Mostly Cloudy
5:56 AM 48.0 °F 37.0 °F 66% 30.13 in 10.0 mi ENE 6.9 mph - N/A   Mostly Cloudy
6:56 AM 46.9 °F 37.0 °F 68% 30.15 in 10.0 mi ENE 10.4 mph - N/A   Mostly Cloudy
7:56 AM 48.0 °F 37.0 °F 66% 30.16 in 10.0 mi East 12.7 mph - N/A   Mostly Cloudy
8:56 AM 50.0 °F 37.0 °F 61% 30.17 in 10.0 mi East 8.1 mph - N/A   Mostly Cloudy
9:56 AM 50.0 °F 37.0 °F 61% 30.18 in 10.0 mi ESE 6.9 mph - N/A   Overcast
10:56 AM 54.0 °F 37.9 °F 55% 30.17 in 10.0 mi East 9.2 mph - N/A   Mostly Cloudy
11:56 AM 55.9 °F 39.0 °F 53% 30.15 in 10.0 mi Variable 3.5 mph - N/A   Mostly Cloudy
12:56 PM 60.1 °F 39.9 °F 47% 30.13 in 10.0 mi North 5.8 mph - N/A   Mostly Cloudy
1:56 PM 63.0 °F 42.1 °F 46% 30.09 in 10.0 mi East 6.9 mph - N/A   Overcast
2:56 PM 62.1 °F 42.1 °F 48% 30.08 in 10.0 mi East 8.1 mph - N/A   Overcast
3:56 PM 62.1 °F 43.0 °F 50% 30.08 in 10.0 mi East 4.6 mph - N/A   Overcast
4:56 PM 61.0 °F 42.1 °F 50% 30.06 in 10.0 mi North 6.9 mph - N/A   Overcast
5:56 PM 60.1 °F 43.0 °F 53% 30.07 in 10.0 mi North 5.8 mph - N/A   Overcast
6:56 PM 59.0 °F 43.0 °F 55% 30.06 in 10.0 mi East 6.9 mph - N/A   Overcast
7:56 PM 59.0 °F 44.1 °F 58% 30.08 in 10.0 mi East 5.8 mph - N/A   Overcast
8:56 PM 57.9 °F 44.1 °F 60% 30.08 in 10.0 mi East 5.8 mph - N/A   Overcast
9:56 PM 57.0 °F 43.0 °F 59% 30.07 in 10.0 mi SE 10.4 mph - N/A   Overcast
10:56 PM 55.9 °F 43.0 °F 62% 30.07 in 10.0 mi SE 8.1 mph - N/A   Overcast
11:56 PM 55.9 °F 43.0 °F 62% 30.06 in 10.0 mi SE 5.8 mph - N/A   Overcast